Location: Colombier
(46.9671°N, 6.8566°E)
Time: 20:31:28
(UTC+00:00)

Daily predictions for brighter satellites

Satellite Brightness Start Highest point End
(mag) Time Altitude Azimuth Time Altitude Azimuth Time Altitude Azimuth
USA 267 4.0 19:32:27 10° SSE 19:38:42 47° SW 19:45:01 10° WNW
Cosmos 1151 Rocket 3.2 19:35:48 10° S 19:40:10 85° W 19:44:36 10° N
Cosmos 1500 3.1 19:40:35 10° N 19:44:20 79° E 19:48:03 10° SSE
USA 307 3.6 19:40:16 10° WNW 19:44:22 47° SW 19:48:28 10° SSE
ERS-2 3.6 19:44:51 10° N 19:48:18 42° WNW 19:51:44 10° SW
Cosmos 1782 3.4 19:45:48 10° SSW 19:49:44 62° W 19:53:42 10° N
Resurs 1-3 3.7 19:45:50 10° S 19:50:13 80° WSW 19:54:38 10° NNW
Landsat 7 4.2 19:45:47 10° SE 19:50:22 50° ENE 19:54:59 10° N
ERBS 3.7 19:49:41 10° NW 19:52:40 30° NNE 19:55:39 10° E
Meteor 1-5 Rocket 4.1 19:50:13 10° N 19:55:34 74° ENE 20:00:51 10° SSE
MetOp-B 4.5 19:50:57 10° SE 19:56:07 53° ENE 20:01:20 10° N
OBJECT-B 2.9 19:54:24 10° SSW 19:57:12 27° W 20:00:02 10° NW
USA 308 3.9 19:54:15 10° WNW 19:58:13 38° SW 20:02:11 10° SSE
ARIANE 5 R/B 3.8 19:55:48 10° ESE 19:59:26 27° ENE 20:03:06 10° N
USA 245 3.9 20:00:07 13° ESE 20:01:30 19° ENE 20:03:23 10° NNE
SPOT 1/Viking Rocket 4.0 19:56:38 10° SE 20:01:35 47° ENE 20:06:32 10° N
Spot 2 Rocket 4.3 19:57:54 10° SE 20:02:23 36° ENE 20:06:58 10° N
Cosmos 1538 Rocket 4.4 19:58:38 10° NNW 20:03:58 67° WSW 20:09:11 10° S
ISS -3.8 20:04:22 10° SW 20:07:41 63° SSE 20:11:03 10° ENE
Meteor 1-11 Rocket 4.0 20:07:31 10° N 20:13:24 59° ENE 20:18:42 12° SSE
Cosmos 1340 Rocket 4.1 20:12:35 10° N 20:16:07 27° ENE 20:18:40 15° ESE
Cosmos 2082 Rocket 2.3 20:10:51 10° NNW 20:16:30 80° WSW 20:21:45 12° SSE
Cosmos 1680 Rocket 3.8 20:12:28 10° NNW 20:17:45 58° ENE 20:22:04 15° SE
Cosmos 2154 Rocket 4.3 20:12:03 10° N 20:18:12 51° ENE 20:23:27 14° SSE
SPOT 3 Rocket 3.6 20:13:06 10° SSE 20:18:16 82° WSW 20:23:27 10° NNW
Cosmos 1943 Rocket 3.0 20:15:01 10° SSE 20:19:51 30° ESE 20:24:40 10° NE
CZ-4C R/B 4.1 20:14:24 10° NW 20:21:13 40° WSW 20:28:52 10° S
Nadezhda 1 Rocket 4.3 20:15:16 10° SSE 20:21:15 48° E 20:27:09 10° NNE
Cosmos 1461 4.0 20:17:46 10° S 20:21:50 30° ESE 20:25:53 10° NE
Cosmos 2074 Rocket 4.0 20:15:50 10° N 20:22:11 80° E 20:28:25 10° SSE
Cosmos 2184 Rocket 4.0 20:18:19 10° N 20:24:33 80° E 20:30:30 11° SSE
Cosmos 44 3.5 20:24:24 10° NW 20:29:52 85° NE 20:33:48 18° SE
BREEZE-M R/B 2.8 20:28:56 10° WNW 20:31:20 43° N 20:33:53 10° ENE
NOSS 3-4 (A) 4.3 20:25:47 10° NW 20:32:40 59° WSW 20:39:25 14° SSE
NOSS 3-4 (C) 4.3 20:25:54 10° NW 20:32:47 59° WSW 20:39:31 14° SSE
Cosmos 1544 3.8 20:30:02 10° N 20:33:27 38° ENE 20:35:19 22° SE
Iridium 4 Rocket 3.8 20:29:27 10° S 20:35:20 83° E 20:41:14 10° N
Cosmos 1271 Rocket 3.1 20:32:11 10° SSW 20:36:10 69° WNW 20:40:11 10° N
Meteor 1-10 Rocket 4.3 20:31:39 10° SSW 20:37:16 82° W 20:43:02 10° N
Cosmos 967 Rocket 4.5 20:31:42 10° SSW 20:37:50 60° ESE 20:44:01 10° NE
Cosmos 2278 Rocket 3.6 20:36:02 10° SW 20:41:22 42° NW 20:46:45 10° NNE
Cosmos 1536 2.8 20:37:53 10° N 20:41:56 70° E 20:44:24 22° SSE
Cosmos 1869 Rocket 3.5 20:39:10 10° N 20:43:32 82° E 20:46:32 20° SSE
Cosmos 990 Rocket 3.9 20:39:01 10° SSW 20:44:14 79° ESE 20:49:32 10° NNE
Cosmos 2369 Rocket 3.2 20:42:46 20° SE 20:45:04 26° ESE 20:49:40 10° NE
Cosmos 2228 Rocket 3.1 20:40:42 10° S 20:45:08 89° ESE 20:49:40 10° N
ATLAS 2AS CENTAUR R/B 2.8 20:38:44 10° NW 20:46:06 77° SW 20:51:06 20° SSE
Cosmos 1610 Rocket 4.4 20:40:28 10° N 20:46:38 79° E 20:51:24 18° SSE
Cosmos 1666 4.1 20:45:27 10° NNW 20:48:52 34° W 20:52:14 10° SSW
Resurs 01 Rocket 3.1 20:45:39 10° SSW 20:49:41 34° W 20:53:45 10° NNW
Cosmos 1898 Rocket 3.5 20:45:10 10° SSW 20:50:26 73° ESE 20:55:47 10° NNE
Tianhe-1 2.1 20:54:09 10° WSW 20:56:44 29° S 20:56:44 29° S
Terra 2.2 20:55:27 24° SE 20:58:02 51° ENE 21:02:39 10° N
Cosmos 1975 4.4 20:57:12 10° NNE 21:00:21 22° ENE 21:01:34 19° E
Cosmos 1707 Rocket 3.7 20:58:17 25° SSE 21:00:37 56° E 21:04:58 10° NNE
CARTOSAT-1 3.6 20:58:59 23° S 21:01:38 78° WSW 21:05:59 10° NNW
SL-24 R/B - RUBIN 2 4.3 20:58:10 10° NW 21:03:27 56° WSW 21:06:09 25° S
Cosmos 1818 3.6 20:59:02 10° NW 21:04:33 82° SW 21:07:40 27° SSE
Cosmos 2084 Rocket 3.7 21:02:21 10° NW 21:06:35 60° SW 21:08:37 29° SSE
JB-3 4.2 21:03:37 10° N 21:07:29 82° WNW 21:10:00 20° SSW
DNEPR-1 R/B 4.0 21:02:18 10° SSW 21:08:19 86° SE 21:13:17 10° NE
SJ 16-02 3.9 21:09:56 10° WSW 21:13:26 22° WNW 21:16:58 10° N
RESURS DK-1 3.6 21:10:14 10° NNW 21:14:00 31° NE 21:15:50 22° E
Cosmos 2341 Rocket 4.0 21:16:21 10° N 21:22:47 80° E 21:26:26 27° SSE
Cosmos 1743 2.8 21:19:45 10° NNW 21:23:37 72° W 21:25:04 36° S
Meteor 1-27 Rocket 4.4 21:18:41 10° SSW 21:24:27 57° WNW 21:30:19 10° N
Cosmos 1733 Rocket 2.9 21:22:55 10° N 21:27:16 79° E 21:28:47 40° SSE
Cosmos 2218 Rocket 4.2 21:21:31 10° N 21:27:46 59° ENE 21:30:56 30° SE
Milstar 3 4.4 21:16:34 10° WSW 21:28:10 28° SSW 21:31:31 23° SSE
ERBS 2.8 21:25:42 10° WNW 21:28:51 42° SW 21:29:01 41° SW
ERS-1 Rocket 3.4 21:29:15 26° S 21:32:01 58° W 21:37:00 10° NNW
SL-24 DEB 4.4 21:29:48 28° SSW 21:32:09 67° W 21:36:46 10° N
SPOT 5 3.5 21:30:45 25° S 21:33:42 58° W 21:38:59 10° NNW
ARIANE 5 R/B 3.9 21:33:20 19° SSW 21:35:47 33° W 21:39:43 10° NNW
Meteor 1-19 Rocket 4.1 21:35:59 33° S 21:38:27 70° E 21:43:52 10° NNE
SL-8 Rocket 4.0 21:32:15 10° N 21:38:37 82° E 21:41:47 32° SSE
Cosmos 1238 Rocket 3.4 21:33:22 10° N 21:39:07 89° W 21:41:08 37° S
Meteor 2-4 Rocket 4.2 21:39:42 34° SE 21:41:33 45° E 21:46:48 10° NNE
Cosmos 1937 Rocket 4.0 21:38:23 10° SW 21:43:26 57° WNW 21:48:34 10° NNE
ISS -2.4 21:41:25 10° W 21:44:38 41° NNW 21:47:52 10° ENE
Cosmos 1908 Rocket 4.0 21:43:51 10° N 21:48:13 50° ENE 21:49:13 41° ESE
Gbstr 26 Del rocket 4.4 21:43:43 10° WNW 21:50:56 51° SW 21:53:23 35° SSE
Cosmos 1833 4.5 21:45:46 10° NNW 21:51:32 63° ENE 21:53:59 34° SE
Okean 1 3.8 21:55:06 35° SW 21:56:30 55° WNW 22:00:25 10° N
H-2A R/B 4.0 21:53:16 10° N 21:57:22 56° WNW 21:59:11 30° SW
BREEZE-M DEB (TANK) 4.2 21:53:26 10° WNW 21:58:44 36° N 22:00:29 16° ENE
Cosmos 1867 3.5 21:56:30 25° SSW 21:59:49 81° ESE 22:05:20 10° NE
Cosmos 1461 4.3 21:56:19 10° WSW 22:00:48 44° NW 22:05:14 10° NNE
Lacrosse 5 3.0 22:02:09 27° E 22:02:09 27° E 22:05:19 10° ENE
Cosmos 864 Rocket 4.4 21:57:04 10° N 22:03:15 84° W 22:05:51 37° S
Cosmos 1943 Rocket 3.1 21:57:58 10° SW 22:03:23 47° NW 22:08:47 10° NNE
Cosmos 1048 Rocket 4.0 21:59:14 10° NNW 22:04:33 78° ENE 22:06:10 45° SE
Cosmos 1959 Rocket 4.5 21:59:33 10° N 22:05:47 79° W 22:08:25 36° S
Cosmos 2242 Rocket 3.7 22:05:59 52° SE 22:06:33 56° E 22:10:57 10° NNE
Okean 1-7 3.1 22:08:56 52° ESE 22:09:15 53° E 22:13:27 10° NNE
Cosmos 1656 Rocket 3.5 22:08:33 40° S 22:10:34 76° ESE 22:16:08 10° NNE
ATLAS CENTAUR R/B 0.9 22:11:29 86° ESE 22:11:29 86° ESE 22:15:16 10° NE
SL-27 R/B 2.6 22:12:30 10° NNW 22:15:31 63° NNE 22:15:31 63° NNE
Cosmos 1862 Rocket 4.4 22:14:36 29° SW 22:16:19 43° WNW 22:20:28 10° N
Cosmos 1703 Rocket 3.5 22:17:22 62° SE 22:17:52 69° E 22:22:17 10° NNE
Cosmos 1782 Rocket 3.7 22:16:31 10° N 22:20:55 60° ENE 22:21:28 55° ESE
Cosmos 1607 4.1 22:22:46 16° SW 22:28:07 77° NW 22:34:39 10° NE
Cosmos 2369 Rocket 2.8 22:24:29 17° SW 22:28:43 54° WNW 22:34:18 10° NNE
USA 215 4.5 22:23:05 10° ENE 22:29:05 41° NNE 22:35:07 10° NW
Cosmos 44 Rocket 3.3 22:30:09 10° NW 22:35:25 89° NE 22:36:33 56° SE
Terra 3.7 22:34:20 17° WSW 22:36:04 21° W 22:39:39 10° NW
Cosmos 1975 4.0 22:33:17 10° NNW 22:36:51 32° W 22:37:19 31° WSW
Cosmos 2344 4.3 22:28:30 10° NW 22:37:44 85° NE 22:46:11 25° SE
Cosmos 2298 Rocket 4.1 22:36:27 39° SW 22:38:25 73° WNW 22:43:44 10° NNE
Cosmos 494 Rocket 3.9 22:34:29 10° NNW 22:39:40 73° WSW 22:40:39 56° S
COBE Rocket 4.4 22:38:52 43° ESE 22:40:08 54° ENE 22:45:12 10° N
Cosmos 1821 Rocket 4.0 22:34:10 10° N 22:40:36 88° E 22:42:44 45° S
Cosmos 724 4.3 22:45:27 43° SSW 22:47:38 78° ESE 22:53:53 10° NE
RESURS DK-1 3.7 22:48:20 10° NW 22:51:42 29° WSW 22:51:42 29° WSW
NOSS 2-1 (C) 4.1 22:53:09 10° NW 22:58:05 84° SW 22:59:58 47° SSE
Okean 3 3.3 22:59:12 82° WSW 22:59:19 84° W 23:03:33 10° N
Cosmos 1356 Rocket 3.5 22:55:21 10° NNW 22:59:39 70° W 22:59:46 69° WSW
Cosmos 1378 3.4 23:00:27 63° NW 23:00:27 63° NW 23:03:53 10° N
Cosmos 2221 Rocket 4.0 23:01:51 49° ESE 23:02:00 50° E 23:06:25 10° NNE
NOSS 2-1 (D) 4.2 23:00:02 10° NW 23:04:58 76° SW 23:06:37 50° SSE
COSMOS 2487 3.2 23:02:54 10° NNW 23:05:34 50° N 23:05:34 50° N
Cosmos 1805 3.3 23:03:26 10° N 23:07:04 73° NNE 23:07:04 73° NNE
ALOS 2 2.5 23:08:32 70° SW 23:08:43 71° WSW 23:13:07 10° NNW
Cosmos 1125 Rocket 4.0 23:07:51 35° WSW 23:09:46 54° WNW 23:14:53 10° NNE
Cosmos 1066 Rocket 4.1 23:09:13 53° SSW 23:10:38 87° W 23:16:16 10° N
Meteor 1-12 Rocket 4.5 23:05:10 10° NNW 23:10:53 60° W 23:12:15 47° SW
SAR-Lupe-2 4.0 23:07:32 10° NNE 23:10:33 61° NNE 23:10:33 61° NNE
Nimbus 7 Rocket 4.4 23:09:26 10° NNE 23:15:21 74° ESE 23:16:52 51° S
Cosmos 1300 Rocket 3.4 23:14:06 10° NNW 23:18:31 80° W 23:18:37 79° WSW
Cosmos 2227 Rocket 3.6 23:13:35 10° NNW 23:18:39 32° NE 23:22:33 15° ESE
Cosmos 2297 Rocket 3.2 23:15:25 10° NNW 23:20:47 41° NE 23:23:53 23° ESE
ISS -2.4 23:18:43 10° WNW 23:21:55 39° N 23:22:53 31° NE
COSMOS 2455 3.1 23:16:31 10° NNW 23:22:32 65° NE 23:25:11 34° SE
Meteor 1-15 Rocket 4.2 23:17:48 10° NNW 23:23:34 76° W 23:24:55 54° SSW
Cosmos 1766 3.3 23:23:26 10° N 23:27:05 75° N 23:27:05 75° N
Meteor 2-10 4.4 23:29:11 10° N 23:34:25 56° ENE 23:35:41 44° ESE
Sich 1 Rocket 4.2 23:34:14 10° NNW 23:38:32 44° W 23:38:42 44° W
BREEZE-M DEB (TANK) 4.5 23:31:30 10° WNW 23:41:14 37° SW 23:41:14 37° SW
Lacrosse 5 2.2 23:41:17 32° WSW 23:43:36 64° NNW 23:48:40 10° NE
Cosmos 1470 3.3 23:42:54 10° N 23:46:46 51° ENE 23:46:48 51° E
Cosmos 1605 Rocket 3.9 23:40:37 10° N 23:46:56 82° W 23:48:50 48° S
SeaSat 1 3.0 23:43:47 10° NE 23:48:28 41° ESE 23:48:47 41° ESE
Okean 2 Rocket 3.5 23:44:13 10° NNW 23:48:28 49° W 23:48:30 49° W
Cosmos 2151 Rocket 3.7 23:46:21 10° NNW 23:50:48 61° W 23:50:56 60° WSW
ATLAS CENTAUR R/B 3.9 23:48:32 10° WNW 23:50:54 16° NNW 23:53:19 10° N
Resurs 1-4 Rocket 4.1 23:51:16 10° NE 23:54:35 17° E 23:56:32 14° ESE
